Home   Weather   Lubbock   Past weeks

Flag for USA Past Weather in Lubbock, Texas, USA — Yesterday and Last 2 Weeks

Now
44 °F

Overcast.


Feels Like: 41 °F
Forecast: 45 / 59 °F
Wind: 6 mph from Southwest

Location: Lubbock International Airport

Current Time: Jan 21, 2017 at 3:02:08 am

Latest Report: Jan 21, 2017 at 1:53 am


Visibility: 10 mi

Pressure: 29.51 "Hg (26.20 "Hg at 976m altitude)

Humidity: 68%

Dew Point: 34 °F

Location of LubbockLocation

Past Weather in Lubbock — Graph

°F

Lubbock Temperature Yesterday

Maximum temperature yesterday: 63 °F (at 1:53 pm)
Minimum temperature yesterday: 41 °F (at 5:53 am)
Average temperature yesterday: 51 °F

High & Low Weather Summary for the Past Weeks

 TemperatureHumidityPressure
High81 °F (Jan 9, 2:53 pm)100% (Jan 14, 5:53 am)30.68 "Hg (Jan 14, 5:53 am)
Low7 °F (Jan 7, 6:53 am)8% (Jan 11, 3:53 pm)29.50 "Hg (Jan 19, 2:53 pm)
Average41 °F66%30.06 "Hg
* Reported Jan 6 1:53 am — Jan 21 1:53 am, Lubbock, Weather by CustomWeather, © 2017

Note: Actual official high and low records may vary slightly from our data, if they occured in-between our weather recording intervals... More about our weather records

Advertising

Lubbock Weather History for the Previous 24 Hours

Scroll right to see more
 ConditionsComfort  
Time TempWeatherWind HumidityBarometerVisibility
1:53 am
Sat, Jan 21
44 °FOvercast.6 mph68%29.51 "Hg10 mi
12:53 am43 °FOvercast.6 mph71%29.53 "Hg10 mi
11:53 pm
Fri, Jan 20
41 °FPassing clouds.8 mph74%29.55 "Hg10 mi
10:53 pm42 °FPassing clouds.5 mph68%29.56 "Hg10 mi
9:53 pm45 °FPassing clouds.8 mph60%29.59 "Hg10 mi
8:53 pm46 °FPassing clouds.8 mph61%29.59 "Hg10 mi
7:53 pm51 °FPassing clouds.10 mph46%29.57 "Hg10 mi
6:53 pm51 °FPassing clouds.7 mph46%29.57 "Hg10 mi
5:53 pm54 °FBroken clouds.8 mph41%29.55 "Hg10 mi
4:53 pm60 °FPassing clouds.17 mph30%29.53 "Hg10 mi
3:53 pm62 °FScattered clouds.21 mph29%29.52 "Hg10 mi
2:53 pm62 °FBroken clouds.28 mph27%29.51 "Hg10 mi
1:53 pm63 °FScattered clouds.29 mph24%29.51 "Hg10 mi
12:53 pm62 °FPassing clouds.36 mph25%29.53 "Hg10 mi
11:53 am60 °FPassing clouds.29 mph33%29.57 "Hg10 mi
10:53 am56 °FScattered clouds.25 mph42%29.61 "Hg10 mi
9:53 am51 °FScattered clouds.21 mph52%29.60 "Hg10 mi
8:53 am48 °FScattered clouds.17 mph59%29.61 "Hg10 mi
7:53 am44 °FBroken clouds.18 mph68%29.60 "Hg10 mi
6:53 am43 °FPassing clouds.13 mph71%29.59 "Hg10 mi
5:53 am41 °FPassing clouds.14 mph74%29.58 "Hg10 mi
4:53 am43 °FClear.16 mph71%29.56 "Hg10 mi
3:53 am45 °FClear.20 mph65%29.54 "Hg10 mi
Weather by CustomWeather, © 2017

See weather overviewHow to use our weather pages